Home > Weather > Molepolole > Past weeks

Flag for Botswana Past Weather in Molepolole, Botswana — Yesterday and Last 2 Weeks

Now
55 °F

Clear.


Feels Like: 53 °F
Forecast: 46 / 65 °F
Wind: 10 mph from South

Location: Seretse Khama International Airport

Current Time: Jul 2, 2016 at 5:58:02 AM

Latest Report: Jul 2, 2016 at 5:00 AM


Visibility: 10 mi

Pressure: 30.24 "Hg (26.38 "Hg at 1145m altitude)

Humidity: 41%

Dew Point: 32 °F

Location of MolepololeLocation

Past Weather in Molepolole — Graph

°F

Molepolole Temperature Yesterday

Maximum temperature yesterday: 77 °F (at 4:00 PM)
Minimum temperature yesterday: 41 °F (at 7:00 AM)
Average temperature yesterday: 58 °F

High & Low Weather Summary for the Past Weeks

 TemperatureHumidityPressure
High79 °F (Jun 20, 3:00 PM)100% (Jun 17, 5:00 AM)30.57 "Hg (Jun 17, 5:00 AM)
Low37 °F (Jun 27, 7:00 AM)12% (Jun 21, 4:00 PM)30.12 "Hg (Jul 1, 4:00 PM)
Average57 °F59%30.31 "Hg
* Reported Jun 17 5:00 AM — Jul 2 5:00 AM, Molepolole, Weather by CustomWeather, © 2016

Note: Actual official high and low records may vary slightly from our data, if they occured in-between our weather recording intervals... More about our weather records

Advertising

Molepolole Weather History for the Previous 24 Hours

Scroll right to see more
 ConditionsComfort  
Time TempWeatherWind HumidityBarometerVisibility
5:00 AM
Sat, Jul 2
55 °FClear.10 mph41%30.24 "Hg10 mi
4:00 AM48 °FClear.2 mph71%30.24 "Hg10 mi
2:00 AM52 °FClear.9 mph67%30.24 "Hg10 mi
1:00 AM50 °FPassing clouds.7 mph71%30.24 "HgN/A
12:00 AM55 °FPassing clouds.5 mph59%30.24 "HgN/A
11:00 PM
Fri, Jul 1
54 °FClear.6 mph63%30.24 "Hg10 mi
10:00 PM54 °FClear.1 mph63%30.21 "Hg10 mi
9:00 PM59 °FClear.1 mph48%30.21 "Hg10 mi
8:00 PM59 °FPassing clouds.3 mph48%30.18 "HgN/A
7:00 PM63 °FPassing clouds.7 mph42%30.18 "HgN/A
6:00 PM68 °FClear.5 mph35%30.15 "Hg10 mi
5:00 PM75 °FClear.7 mph25%30.12 "Hg10 mi
4:00 PM77 °FPassing clouds.5 mph22%30.12 "HgN/A
3:00 PM75 °FPassing clouds.5 mph24%30.15 "HgN/A
2:00 PM73 °FSunny.5 mph27%30.15 "Hg10 mi
1:00 PM70 °FPassing clouds.6 mph33%30.21 "HgN/A
12:00 PM68 °FSunny.2 mph38%30.24 "Hg10 mi
11:00 AM64 °FPassing clouds.3 mph43%30.27 "HgN/A
10:00 AM59 °FPassing clouds.6 mph48%30.27 "HgN/A
9:00 AM54 °FPassing clouds.3 mph63%30.27 "HgN/A
8:00 AM46 °FSunny.3 mph76%30.27 "Hg10 mi
7:00 AM41 °FSunny.3 mph93%30.24 "Hg10 mi
6:00 AM43 °FSunny.6 mph87%30.24 "Hg10 mi
5:00 AM43 °FClear.3 mph81%30.24 "Hg10 mi
Weather by CustomWeather, © 2016

See weather overviewHow to use our weather pages